Vertical_Velocity
-6 -5 -3 -7 -3 2 3 -2 -0 1 1 -5 4 -1 -4 1 2 -1 -3 -4 2 8 7 -1 -1 3 -2 3 -1 -5 -7 -5 0 -3 -0 -2 -2 -4 -4 -2 -3 -12 9 -2 1 4 4
2 -1 -0 -1 -2 -4 -4 -0 2 2 1 0 -2 -1 -1 3 -0 2 -3 -2 -1 1 0 -1 -2 5 -4 4 0 -4 -6 -5 -5 -4 -2 -3 -3 -3 -1 0 -7 -2 -2 1 4 -0 7
-1 2 -1 2 3 4 -4 -5 -7 -4 0 0 -4 3 3 -2 2 1 -1 0 -1 -2 2 2 2 -3 -2 2 -2 -0 -0 -5 -5 -2 -2 -4 -1 -1 -5 1 1 -2 7 16 1 -2 -1
0 1 1 -1 0 -3 -2 -4 3 -2 -4 1 1 -0 6 -4 -0 2 5 1 4 -3 1 7 -0 -0 1 1 -4 -2 -4 -6 -8 -3 -4 -0 -3 -3 7 -1 5 -9 -4 10 5 -6 -5
3 0 1 -2 -6 -4 -4 -2 -4 -6 -1 2 -0 3 7 -2 3 1 1 2 1 0 -4 4 2 -1 -1 2 -4 -1 -4 -5 -8 -3 -1 -1 -2 -1 6 -11 14 18 -0 3 -4 4 3
-1 2 0 -2 1 -1 -2 1 0 -3 -3 3 9 5 2 1 -1 1 2 -1 1 2 -1 10 9 0 -4 -0 -1 -1 -2 -3 -2 -2 -1 -3 -1 -1 0 -4 -9 1 1 -5 -1 -2 6
1 -3 -0 2 1 -1 -3 -1 -0 -2 1 5 -0 1 7 -0 -0 4 -0 1 1 4 -0 4 6 -2 -1 0 -1 -2 -0 0 -1 -3 -4 -1 -2 11 13 -3 -5 -0 0 4 -4 -7 -9
-2 -2 -7 -11 -5 -8 -5 -2 -3 -0 -2 0 2 2 7 -3 1 9 -2 -4 2 -1 2 4 2 -4 2 -1 -1 -3 1 -2 -0 1 -7 -3 -4 1 38 15 0 -3 -4 -0 2 -1 -2
-3 -3 -7 -4 -6 -5 -5 -4 -6 -6 -2 3 -1 3 -2 4 0 2 1 -2 1 3 4 4 1 -1 -1 -1 -2 4 -1 -6 3 -8 -5 -2 -4 -0 9 6 0 1 4 1 -5 4 -4
-3 -6 -2 -0 4 3 8 4 2 4 3 -1 5 -0 1 -2 7 4 -3 1 2 5 0 3 -3 -0 -0 -4 -1 -5 -2 -0 -6 -6 -4 -5 -4 -3 14 -0 -4 3 -1 -1 -5 -9 -5
-0 -1 -1 2 2 4 -1 3 3 4 -3 -3 8 3 4 -4 2 3 2 -1 3 6 -0 8 -4 -1 -2 2 -3 -8 -3 -6 -5 0 -0 2 -2 -9 -9 1 -5 -7 -2 -1 3 2 2
-3 1 1 1 -0 0 -1 -3 -1 3 5 2 7 6 -3 -1 0 -0 1 1 7 4 2 5 1 0 -3 1 -0 -4 4 5 1 1 -3 4 3 6 3 5 -2 0 -1 -6 -0 -2 2
-1 -2 1 0 -2 -2 -1 0 -4 -1 -1 -7 -1 1 -5 -3 5 -1 0 8 -5 4 -2 1 1 1 -1 -2 -3 -4 2 -2 -1 -1 2 21 4 5 2 -0 -4 0 -4 -3 -3 -7 -8
0 -2 2 -3 -0 -2 -1 -2 3 1 -1 -2 -13 -17 -3 1 -1 -2 6 -3 5 2 1 13 -4 -1 2 -0 -1 -3 -4 3 20 10 -6 4 3 0 2 -4 2 7 0 -1 1 1 3
4 5 -1 1 -3 -2 1 2 3 1 3 5 9 -8 2 -0 -3 5 1 -3 5 5 16 3 1 -3 1 -0 -4 -1 1 3 -0 -2 -1 0 -2 -1 -8 4 5 -0 -6 -11 -5 -6 4
1 2 2 2 -1 4 3 2 3 4 2 8 13 -1 3 -6 3 4 -5 4 2 2 16 2 1 -0 -1 -2 -7 1 1 3 -1 1 0 -1 5 -2 4 5 1 5 2 -4 -9 -8 -10
-0 -1 3 -1 -1 3 0 1 3 1 -0 8 7 10 5 3 8 -9 -2 3 0 17 16 -3 -0 2 4 -3 -3 1 -1 1 -1 1 0 1 2 4 5 3 4 2 1 5 2 -1 -1
7 2 6 -1 2 -2 2 1 -1 -2 0 8 12 2 -0 4 -8 -1 4 5 5 13 4 0 -2 -2 3 -1 0 -0 1 -0 -1 -2 3 5 4 -0 -2 -1 -2 -3 -3 -2 2 -2 2
8 7 1 1 5 -1 3 -3 -4 -4 -2 1 10 10 -1 -1 -3 2 3 1 2 19 9 -2 -1 -1 5 -2 1 -0 -0 0 1 -1 2 1 -0 -1 2 1 1 0 3 -4 -4 -4 -0
2 8 0 3 5 -0 2 -3 -5 -5 -2 -1 3 -2 2 -2 0 3 2 8 9 7 4 1 -1 -1 3 2 -1 -0 -0 -2 -2 -3 -2 0 2 -2 -3 -3 -0 -3 -1 -2 -2 -3 2
5 8 -0 5 4 0 -4 -5 -6 -6 3 -0 -3 -4 -5 0 4 2 4 6 4 8 4 3 -0 -1 5 2 2 1 1 -2 -1 -2 -1 -1 0 1 -2 -3 -3 -2 -1 -2 -1 -2 0
-2 5 3 -0 1 2 -7 -8 -7 0 -2 -5 -1 -4 1 -1 1 3 3 2 5 3 2 1 -2 1 2 0 -3 -4 -8 -4 -3 -3 -3 0 2 -1 -2 -3 -2 -4 5 -0 1 1 3
-1 2 2 -3 0 -0 -8 -3 -2 1 -1 4 -2 -5 -3 -1 -1 2 -2 2 0 -0 0 0 -5 -0 2 -2 -1 -2 -1 1 0 0 2 1 -1 0 0 1 0 4 5 6 3 1 -3
-2 0 -2 -2 -0 -5 -6 -2 -1 -2 3 1 -0 1 -3 -4 1 0 2 2 0 -0 1 -1 0 -2 -4 -1 -1 -0 -1 -2 -2 -3 -1 0 3 1 2 1 2 1 1 -0 -2 -3 -4
6 1 -6 -3 -1 -8 -4 -1 -2 -3 -2 -2 -2 -1 0 -2 -3 3 3 1 1 2 1 -0 -1 1 1 -1 -3 -2 -5 -5 -6 -3 -4 -2 -2 -2 -4 -2 2 2 2 2 3 -2 -3
3 2 -6 0 -2 -7 -10 -3 -1 -4 -6 -3 -1 -1 -2 -1 -1 0 1 -2 -1 1 1 -0 2 1 0 -1 0 -1 -1 -1 -2 -1 -1 -2 -3 -2 1 -2 -5 -2 -3 -4 -5 -6 0
3 2 -3 4 -2 -4 -8 -7 -4 -4 -6 -6 -2 -4 1 -1 -1 2 0 -3 0 1 -2 -4 0 1 1 -0 -2 -1 -1 -1 -1 -0 -2 -2 -1 -1 -1 -1 -3 -3 -3 -1 -2 1 -0
-0 -6 -1 -2 -6 -2 -3 -6 -2 -4 -3 -7 -4 1 1 -2 -1 0 1 -1 2 1 0 1 -1 2 -1 -3 -2 -0 -0 -0 -0 -0 -1 -3 -3 -2 -1 -4 -3 -4 -3 -5 -3 -3 -3
1 -9 0 -7 -2 -6 -3 -3 -0 -2 -2 -2 -2 -1 0 -2 0 2 2 -0 -0 -2 -1 1 -3 -1 -2 -2 -1 -1 -0 -0 -1 -3 -3 -4 -2 -2 -4 -3 -2 -2 -3 -2 -2 -3 -4
Height
5776 5769 5764 5758 5751 5746 5740 5735 5729 5723 5717 5711 5708 5703 5699 5698 5695 5694 5692 5688 5682 5679 5673 5667 5662 5657 5652 5646 5638 5632 5626 5618 5608 5600 5589 5583 5580 5579 5579 5581 5580 5580 5577 5584 5599 5614 5629
5767 5760 5754 5747 5740 5733 5728 5723 5717 5712 5707 5702 5697 5691 5689 5686 5685 5683 5681 5679 5675 5669 5663 5657 5653 5648 5642 5636 5628 5621 5612 5604 5596 5587 5578 5574 5573 5573 5574 5575 5575 5574 5577 5585 5598 5609 5623
5757 5750 5743 5736 5730 5723 5717 5709 5705 5701 5696 5691 5685 5681 5677 5676 5675 5673 5671 5669 5667 5662 5656 5651 5645 5639 5632 5624 5618 5611 5603 5594 5586 5576 5571 5569 5570 5572 5573 5571 5569 5569 5577 5589 5598 5609 5621
5747 5740 5733 5724 5717 5711 5704 5699 5694 5687 5681 5678 5673 5670 5667 5665 5664 5662 5661 5659 5657 5655 5650 5643 5637 5632 5624 5616 5609 5602 5594 5586 5578 5571 5569 5569 5571 5573 5570 5571 5569 5572 5577 5585 5597 5608 5618
5734 5726 5719 5711 5704 5697 5691 5685 5680 5674 5668 5663 5658 5656 5656 5653 5653 5652 5651 5649 5648 5647 5643 5636 5631 5624 5617 5609 5603 5596 5590 5582 5574 5570 5570 5571 5573 5572 5571 5574 5573 5580 5584 5592 5600 5609 5619
5721 5714 5706 5698 5691 5682 5675 5669 5663 5657 5652 5648 5644 5642 5642 5641 5641 5641 5641 5640 5639 5639 5636 5629 5624 5619 5612 5604 5598 5594 5586 5578 5575 5572 5572 5575 5574 5573 5575 5577 5580 5583 5588 5596 5603 5611 5623
5709 5700 5692 5684 5675 5666 5657 5650 5645 5637 5632 5630 5628 5628 5628 5628 5629 5630 5630 5631 5631 5633 5628 5625 5619 5611 5604 5598 5595 5588 5582 5578 5575 5574 5577 5575 5575 5576 5577 5579 5584 5589 5594 5601 5607 5615 5623
5695 5687 5677 5667 5658 5647 5638 5630 5622 5618 5614 5611 5610 5610 5614 5615 5617 5619 5620 5620 5622 5624 5623 5619 5614 5607 5600 5597 5592 5585 5580 5579 5576 5579 5580 5579 5578 5577 5580 5583 5590 5595 5600 5605 5609 5616 5626
5682 5672 5660 5649 5636 5625 5616 5606 5599 5595 5594 5591 5591 5593 5597 5601 5604 5608 5610 5611 5615 5616 5618 5614 5609 5604 5599 5597 5591 5584 5581 5579 5579 5582 5583 5583 5583 5583 5586 5587 5593 5598 5603 5608 5614 5620 5625
5666 5654 5643 5631 5619 5608 5597 5585 5578 5575 5572 5572 5572 5574 5581 5586 5594 5597 5600 5604 5607 5610 5610 5610 5604 5601 5598 5596 5592 5587 5583 5581 5584 5586 5586 5586 5586 5586 5588 5591 5597 5603 5607 5613 5619 5623 5631
5651 5640 5627 5614 5602 5590 5577 5568 5560 5552 5549 5550 5552 5556 5564 5572 5579 5586 5592 5596 5600 5604 5603 5604 5600 5599 5597 5597 5596 5593 5588 5587 5588 5589 5589 5590 5590 5593 5594 5597 5601 5606 5612 5616 5620 5626 5636
5638 5626 5612 5597 5583 5568 5555 5545 5534 5528 5523 5524 5529 5536 5548 5557 5566 5575 5583 5588 5593 5599 5600 5598 5597 5597 5598 5597 5597 5596 5594 5592 5592 5591 5593 5593 5594 5597 5599 5602 5605 5608 5615 5622 5627 5632 5639
5624 5610 5594 5579 5563 5548 5533 5520 5511 5505 5500 5498 5502 5513 5529 5541 5557 5566 5575 5581 5589 5593 5596 5595 5593 5595 5596 5598 5599 5598 5596 5595 5596 5596 5596 5596 5599 5601 5604 5608 5611 5613 5618 5624 5630 5635 5639
5609 5592 5577 5560 5544 5529 5516 5505 5496 5486 5479 5473 5475 5492 5509 5529 5545 5558 5566 5577 5583 5588 5591 5587 5591 5593 5595 5598 5600 5601 5600 5599 5598 5600 5602 5602 5605 5606 5608 5612 5615 5616 5623 5628 5633 5639 5641
5594 5577 5561 5545 5530 5514 5502 5492 5484 5478 5473 5472 5471 5475 5499 5523 5540 5549 5560 5571 5578 5584 5585 5585 5588 5592 5594 5598 5602 5602 5601 5602 5603 5605 5609 5609 5609 5610 5612 5614 5618 5622 5628 5632 5634 5637 5641
5580 5564 5548 5531 5516 5502 5491 5483 5478 5474 5473 5472 5472 5474 5499 5521 5533 5542 5557 5568 5575 5580 5581 5582 5585 5591 5594 5599 5602 5603 5603 5604 5606 5607 5609 5612 5614 5614 5615 5617 5622 5625 5629 5633 5638 5641 5646
5569 5553 5536 5521 5506 5494 5482 5478 5474 5473 5473 5474 5478 5486 5504 5517 5527 5543 5555 5566 5572 5576 5579 5580 5583 5589 5594 5600 5603 5605 5607 5608 5609 5611 5612 5613 5615 5618 5618 5622 5626 5630 5632 5635 5639 5643 5647
5560 5543 5527 5512 5497 5486 5480 5475 5474 5475 5474 5477 5484 5491 5502 5514 5532 5543 5556 5564 5571 5574 5577 5578 5583 5587 5593 5600 5603 5606 5608 5610 5611 5613 5614 5616 5617 5619 5621 5624 5628 5631 5635 5637 5641 5646 5649
5553 5536 5518 5505 5490 5481 5477 5475 5476 5478 5479 5481 5490 5497 5505 5520 5534 5546 5556 5565 5570 5572 5574 5578 5581 5587 5592 5599 5604 5607 5609 5612 5613 5616 5618 5620 5622 5623 5625 5628 5630 5633 5635 5639 5643 5649 5654
5546 5528 5512 5497 5483 5477 5474 5477 5480 5482 5483 5487 5494 5502 5514 5526 5538 5549 5558 5565 5568 5571 5573 5576 5579 5585 5592 5598 5604 5607 5610 5614 5616 5618 5620 5623 5624 5626 5629 5630 5632 5633 5636 5640 5644 5649 5653
5541 5522 5506 5489 5478 5475 5475 5481 5485 5487 5490 5494 5501 5510 5521 5535 5544 5552 5559 5564 5568 5570 5572 5574 5578 5583 5591 5598 5603 5607 5610 5614 5617 5619 5622 5624 5625 5627 5629 5632 5634 5635 5637 5641 5645 5648 5652
5536 5515 5500 5486 5479 5476 5477 5485 5491 5494 5498 5507 5514 5522 5531 5539 5547 5553 5560 5564 5567 5570 5572 5573 5577 5583 5590 5595 5600 5605 5610 5613 5616 5619 5622 5625 5627 5630 5632 5634 5636 5637 5637 5640 5644 5648 5649
5532 5512 5497 5489 5483 5480 5485 5491 5497 5502 5509 5516 5523 5530 5536 5543 5549 5555 5558 5563 5567 5569 5571 5574 5577 5582 5588 5596 5601 5606 5610 5613 5616 5620 5622 5624 5628 5630 5633 5636 5638 5639 5639 5641 5643 5645 5648
5530 5512 5500 5493 5489 5489 5493 5500 5506 5513 5520 5526 5533 5540 5544 5549 5554 5558 5562 5565 5568 5571 5574 5576 5580 5584 5590 5595 5601 5606 5610 5613 5617 5620 5622 5624 5626 5628 5631 5633 5636 5637 5638 5640 5642 5645 5646
5531 5516 5508 5502 5498 5502 5504 5509 5515 5521 5528 5534 5541 5547 5551 5554 5558 5563 5567 5570 5571 5573 5577 5579 5582 5587 5590 5595 5599 5604 5609 5613 5615 5618 5620 5623 5625 5628 5629 5631 5633 5635 5636 5638 5640 5640 5642
5535 5522 5518 5514 5512 5515 5517 5519 5526 5532 5538 5544 5548 5552 5555 5560 5565 5568 5571 5574 5576 5579 5581 5585 5588 5591 5594 5597 5601 5605 5607 5610 5612 5615 5617 5620 5623 5626 5627 5629 5630 5632 5633 5636 5637 5638 5638
5542 5531 5527 5526 5527 5529 5532 5534 5539 5544 5548 5552 5556 5559 5563 5566 5569 5573 5575 5578 5581 5584 5587 5590 5594 5597 5600 5602 5604 5607 5609 5612 5614 5616 5618 5620 5622 5624 5625 5627 5629 5629 5630 5632 5633 5638 5634
5552 5545 5540 5541 5542 5542 5545 5547 5550 5554 5558 5561 5564 5566 5569 5571 5574 5576 5578 5582 5586 5589 5592 5596 5599 5601 5604 5607 5609 5612 5614 5617 5619 5621 5622 5624 5625 5626 5627 5628 5630 5630 5631 5631 5632 5632 5632
5561 5560 5554 5554 5555 5554 5556 5557 5559 5562 5566 5568 5570 5571 5572 5576 5579 5580 5582 5586 5590 5593 5597 5600 5603 5605 5607 5611 5613 5615 5617 5620 5622 5623 5624 5626 5628 5628 5629 5630 5629 5629 5629 5629 5628 5627 5626